When you browse on this site, cookies collect data to enhance your experience and personalize the content and advertising you see.
Visit our Privacy Policy to learn more. By continuing to use the site, you agree to this use of cookies and data.
  • en Suisse
  • Liste des pays
  • À 7 jours
  • Température de l'eau
  • Carte satellitaire
  • Carte météo
  • Widgets météo
  • user-avatar
    Se connecter

    Météo par heure à Kovalevka

    Ce jour, 17 Novembre, Samedi

    Heure Température Précipitation Vent Pression Humidité
    00:00 -4°C° 0.1 mm 8 m/s 765 mmHg 86%
    01:00 -4°C° 0.2 mm 8 m/s 764 mmHg 87%
    02:00 -4°C° 0.2 mm 8 m/s 764 mmHg 89%
    03:00 -4°C° 0 mm 7 m/s 764 mmHg 90%
    04:00 -4°C° 0.1 mm 7 m/s 764 mmHg 88%
    05:00 -4°C° 0.1 mm 7 m/s 764 mmHg 87%
    06:00 -4°C° 0.1 mm 7 m/s 764 mmHg 86%
    07:00 -4°C° 0.3 mm 7 m/s 764 mmHg 87%
    08:00 -4°C° 0.3 mm 7 m/s 765 mmHg 89%
    09:00 -4°C° 0 mm 6 m/s 765 mmHg 90%
    10:00 -4°C° 0.2 mm 6 m/s 765 mmHg 90%
    11:00 -3°C° 0.2 mm 6 m/s 765 mmHg 91%
    12:00 -3°C° 0.2 mm 6 m/s 765 mmHg 92%
    13:00 -3°C° 0.1 mm 6 m/s 765 mmHg 91%
    14:00 -3°C° 0.1 mm 6 m/s 765 mmHg 90%
    15:00 -2°C° 0 mm 5 m/s 765 mmHg 87%
    16:00 -3°C° 0 mm 4 m/s 765 mmHg 86%
    17:00 -3°C° 0 mm 4 m/s 765 mmHg 84%
    18:00 -4°C° 0 mm 4 m/s 765 mmHg 83%
    19:00 -4°C° 0 mm 4 m/s 765 mmHg 83%
    20:00 -5°C° 0 mm 3 m/s 764 mmHg 82%
    21:00 -5°C° 0 mm 3 m/s 764 mmHg 82%
    22:00 -5°C° 0 mm 3 m/s 764 mmHg 82%
    23:00 -5°C° 0 mm 3 m/s 764 mmHg 82%

    Demain, 18 Novembre, Dimanche

    Heure Température Précipitation Vent Pression Humidité
    00:00 -5°C° 0 mm 2 m/s 763 mmHg 82%
    01:00 -5°C° 0 mm 2 m/s 763 mmHg 82%
    02:00 -5°C° 0 mm 2 m/s 763 mmHg 82%
    03:00 -5°C° 0 mm 2 m/s 763 mmHg 82%
    04:00 -5°C° 0 mm 2 m/s 762 mmHg 82%
    05:00 -5°C° 0 mm 2 m/s 762 mmHg 83%
    06:00 -5°C° 0 mm 2 m/s 762 mmHg 83%
    07:00 -4°C° 0 mm 2 m/s 762 mmHg 83%
    08:00 -4°C° 0 mm 2 m/s 762 mmHg 83%
    09:00 -4°C° 0 mm 2 m/s 761 mmHg 83%
    10:00 -1°C° 0 mm 1 m/s 761 mmHg 82%
    11:00 0°C° 0 mm 1 m/s 761 mmHg 82%
    12:00 +1°C° 0 mm 1 m/s 761 mmHg 81%
    13:00 +1°C° 0 mm 1 m/s 761 mmHg 83%
    14:00 +1°C° 0 mm 1 m/s 761 mmHg 85%
    15:00 +1°C° 0 mm 1 m/s 761 mmHg 87%
    16:00 +1°C° 0 mm 1 m/s 761 mmHg 88%
    17:00 0°C° 0 mm 1 m/s 761 mmHg 90%
    18:00 0°C° 0 mm 1 m/s 761 mmHg 91%
    19:00 0°C° 0 mm 1 m/s 761 mmHg 92%
    20:00 0°C° 0 mm 1 m/s 760 mmHg 92%
    21:00 0°C° 0 mm 1 m/s 760 mmHg 93%
    22:00 0°C° 0 mm 1 m/s 760 mmHg 94%
    23:00 -2°C° 0 mm 2 m/s 760 mmHg 94%

    Après-demain, 19 Novembre, Lundi

    Heure Température Précipitation Vent Pression Humidité
    00:00 -2°C° 0 mm 2 m/s 760 mmHg 95%
    01:00 -2°C° 0 mm 2 m/s 760 mmHg 95%
    02:00 -2°C° 0 mm 2 m/s 760 mmHg 95%
    03:00 -2°C° 0 mm 2 m/s 760 mmHg 95%
    04:00 -1°C° 0 mm 2 m/s 760 mmHg 96%
    05:00 -1°C° 0 mm 2 m/s 760 mmHg 96%
    06:00 -1°C° 0 mm 2 m/s 760 mmHg 96%
    07:00 -1°C° 0 mm 3 m/s 760 mmHg 96%
    08:00 -1°C° 0 mm 3 m/s 760 mmHg 96%
    09:00 0°C° 0 mm 3 m/s 760 mmHg 97%
    10:00 0°C° 0 mm 3 m/s 760 mmHg 97%
    11:00 -1°C° 0 mm 4 m/s 760 mmHg 97%
    12:00 0°C° 0 mm 4 m/s 760 mmHg 97%
    13:00 0°C° 0 mm 4 m/s 760 mmHg 97%
    14:00 0°C° 0 mm 4 m/s 760 mmHg 97%
    15:00 0°C° 0 mm 4 m/s 759 mmHg 97%
    16:00 0°C° 0 mm 4 m/s 759 mmHg 97%
    17:00 0°C° 0 mm 4 m/s 759 mmHg 98%
    18:00 0°C° 0 mm 5 m/s 759 mmHg 98%
    19:00 0°C° 0 mm 5 m/s 759 mmHg 97%
    20:00 0°C° 0 mm 5 m/s 758 mmHg 96%
    21:00 0°C° 0 mm 5 m/s 758 mmHg 95%
    22:00 0°C° 0.1 mm 5 m/s 758 mmHg 95%
    23:00 0°C° 0.1 mm 5 m/s 758 mmHg 95%

    20 Novembre, Mardi

    Heure Température Précipitation Vent Pression Humidité
    00:00 0°C° 0.1 mm 5 m/s 758 mmHg 94%
    01:00 0°C° 0.4 mm 5 m/s 758 mmHg 94%
    02:00 +1°C° 0.4 mm 5 m/s 757 mmHg 94%
    03:00 +1°C° 0.4 mm 6 m/s 757 mmHg 94%
    04:00 +1°C° 0.7 mm 6 m/s 757 mmHg 94%
    05:00 +1°C° 0.7 mm 6 m/s 756 mmHg 93%
    06:00 0°C° 0.7 mm 7 m/s 756 mmHg 93%
    07:00 0°C° 1.4 mm 7 m/s 756 mmHg 93%
    08:00 +1°C° 1.4 mm 6 m/s 756 mmHg 93%
    09:00 +1°C° 1.4 mm 6 m/s 756 mmHg 94%
    10:00 +1°C° 0.3 mm 6 m/s 755 mmHg 94%
    11:00 0°C° 0.3 mm 7 m/s 755 mmHg 94%
    12:00 +2°C° 0.3 mm 7 m/s 755 mmHg 94%
    13:00 +2°C° 0.5 mm 6 m/s 754 mmHg 94%
    14:00 +2°C° 0.5 mm 6 m/s 754 mmHg 94%
    15:00 +2°C° 0.5 mm 6 m/s 754 mmHg 95%
    16:00 +2°C° 1.1 mm 5 m/s 754 mmHg 95%
    17:00 +2°C° 1.1 mm 5 m/s 754 mmHg 95%
    18:00 +2°C° 1.1 mm 5 m/s 754 mmHg 96%
    19:00 +2°C° 0.1 mm 5 m/s 754 mmHg 95%
    20:00 +2°C° 0.1 mm 5 m/s 754 mmHg 95%
    21:00 +2°C° 0.1 mm 5 m/s 754 mmHg 94%
    22:00 +1°C° 0 mm 5 m/s 755 mmHg 93%
    23:00 +1°C° 0 mm 5 m/s 755 mmHg 92%

    21 Novembre, Mercredi

    Heure Température Précipitation Vent Pression Humidité
    00:00 0°C° 0 mm 4 m/s 756 mmHg 90%
    01:00 0°C° 0 mm 4 m/s 756 mmHg 89%
    02:00 0°C° 0 mm 4 m/s 756 mmHg 88%
    03:00 +1°C° 0 mm 3 m/s 756 mmHg 87%
    04:00 0°C° 0 mm 3 m/s 756 mmHg 87%
    05:00 0°C° 0 mm 3 m/s 756 mmHg 87%
    06:00 0°C° 0 mm 3 m/s 757 mmHg 87%
    07:00 0°C° 0 mm 3 m/s 757 mmHg 86%
    08:00 0°C° 0 mm 3 m/s 757 mmHg 85%
    09:00 0°C° 0 mm 3 m/s 757 mmHg 84%
    10:00 0°C° 0 mm 3 m/s 757 mmHg 82%
    11:00 +1°C° 0 mm 3 m/s 757 mmHg 79%
    12:00 0°C° 0 mm 4 m/s 757 mmHg 77%
    13:00 +1°C° 0 mm 3 m/s 757 mmHg 76%
    14:00 +2°C° 0 mm 3 m/s 757 mmHg 75%
    15:00 +2°C° 0 mm 3 m/s 757 mmHg 75%
    16:00 +1°C° 0 mm 3 m/s 757 mmHg 76%
    17:00 0°C° 0 mm 4 m/s 757 mmHg 77%
    18:00 -1°C° 0 mm 4 m/s 757 mmHg 78%
    19:00 -1°C° 0 mm 4 m/s 757 mmHg 78%
    20:00 0°C° 0 mm 3 m/s 757 mmHg 77%
    21:00 0°C° 0 mm 3 m/s 757 mmHg 76%
    22:00 -1°C° 0 mm 3 m/s 757 mmHg 77%
    23:00 -2°C° 0 mm 4 m/s 757 mmHg 77%

    22 Novembre, Jeudi

    Heure Température Précipitation Vent Pression Humidité
    00:00 -2°C° 0 mm 4 m/s 757 mmHg 78%
    01:00 -3°C° 0 mm 4 m/s 757 mmHg 78%
    02:00 -3°C° 0 mm 4 m/s 757 mmHg 79%
    03:00 -3°C° 0 mm 4 m/s 757 mmHg 79%
    04:00 -4°C° 0 mm 4 m/s 757 mmHg 79%
    05:00 -4°C° 0 mm 4 m/s 757 mmHg 79%
    06:00 -4°C° 0 mm 4 m/s 757 mmHg 80%
    07:00 -4°C° 0 mm 4 m/s 757 mmHg 78%
    08:00 -4°C° 0 mm 4 m/s 758 mmHg 77%
    09:00 -4°C° 0 mm 4 m/s 758 mmHg 75%
    10:00 -3°C° 0 mm 4 m/s 758 mmHg 72%
    11:00 -2°C° 0 mm 4 m/s 758 mmHg 69%
    12:00 -2°C° 0 mm 4 m/s 758 mmHg 66%
    13:00 -2°C° 0 mm 4 m/s 758 mmHg 67%
    14:00 -2°C° 0 mm 4 m/s 757 mmHg 68%
    15:00 -2°C° 0 mm 4 m/s 757 mmHg 69%
    16:00 -2°C° 0 mm 4 m/s 758 mmHg 73%
    17:00 -2°C° 0 mm 3 m/s 758 mmHg 77%
    18:00 -4°C° 0 mm 3 m/s 758 mmHg 81%
    19:00 -4°C° 0 mm 3 m/s 758 mmHg 81%
    20:00 -4°C° 0 mm 3 m/s 758 mmHg 80%
    21:00 -5°C° 0 mm 3 m/s 759 mmHg 80%
    22:00 -5°C° 0 mm 3 m/s 759 mmHg 78%
    23:00 -5°C° 0 mm 3 m/s 759 mmHg 77%
    Voir plus